Tracking 31027 objects as of 19-Jul-2025
HD Live streaming from Space Station
objects crossing your sky now

FENGYUN 1C DEB

Track FENGYUN 1C DEB now!
10-day predictions


NORAD ID: 33650
Int'l Code: 1999-025DEK
Perigee: 828.2 km
Apogee: 1,053.6 km
Inclination: 99.0 °
Period: 103.7 minutes
Semi major axis: 7311 km
RCS: 0.0036 m2 (small)
Launch date: May 10, 1999
Source: People's Republic of China (PRC)
Launch site: Taiyaun Space Center, China (TSC)

Note: This is SATELLITE DEBRIS
Your satellite tracking list
MOLNIYA 1-86
Track 1 satellite(s)




NASA's NSSDC Master Catalog

Two Line Element Set (TLE):
1 33650U 99025DEK 25199.72745966  .00000972  00000-0  76665-3 0  9995
2 33650  98.9803  10.0223 0154130 117.5418 244.1496 13.88531526872251
Source of the keplerian elements: AFSPC